GW1347 Weather Reports


Display with metric or nautical units.
time (UTC)temp
F
wind
direction
speed
MPH
gust
MPH
rain 1hr
in
rain 24hr
in
rain mn
in
humidity
%
barometer
mb
20260507204430 64 233 0.0 4.0 0.00 0.00 0.00 34 1014.4
20260507203421 65 333 1.0 3.0 0.00 0.00 0.00 31 1014.4
20260507202356 66 266 1.0 9.0 0.00 0.00 0.00 31 1014.5
20260507201332 65 359 2.0 10.0 0.00 0.00 0.00 31 1014.6
20260507200331 64 113 1.0 10.0 0.00 0.00 0.00 34 1014.7
20260507195334 63 330 2.0 6.0 0.00 0.00 0.00 33 1014.9
20260507193140 63 213 3.0 9.0 0.00 0.00 0.00 31 1015.1
20260507192128 62 67 3.0 9.0 0.00 0.00 0.00 30 1015.2
20260507190038 63 60 1.0 9.0 0.00 0.00 0.00 32 1015.3
20260507185007 63 4 2.0 8.0 0.00 0.00 0.00 32 1015.4
20260507183954 61 314 4.0 11.0 0.00 0.00 0.00 32 1015.6
20260507183011 62 58 3.0 13.0 0.00 0.00 0.00 38 1015.5
20260507182035 61 356 4.0 13.0 0.00 0.00 0.00 33 1015.5
20260507181040 61 323 3.0 12.0 0.00 0.00 0.00 35 1015.6
20260507175127 60 295 4.0 9.0 0.00 0.00 0.00 37 1016.1
20260507174054 60 312 3.0 9.0 0.00 0.00 0.00 34 1015.9
20260507173029 61 272 1.0 11.0 0.00 0.00 0.00 36 1016.0
20260507172051 60 25 4.0 11.0 0.00 0.00 0.00 36 1016.2
20260507165950 59 298 3.0 11.0 0.00 0.00 0.00 34 1016.5
20260507164917 59 30 4.0 11.0 0.00 0.00 0.00 36 1016.7
20260507163922 59 333 3.0 9.0 0.00 0.00 0.00 37 1016.7
20260507162931 59 23 4.0 13.0 0.00 0.00 0.00 38 1016.7
20260507161928 58 281 4.0 13.0 0.00 0.00 0.00 35 1016.7
20260507155745 58 282 2.0 7.0 0.00 0.00 0.00 38 1016.9
20260507154803 58 226 3.0 10.0 0.00 0.00 0.00 38 1016.9
20260507153747 58 337 3.0 10.0 0.00 0.00 0.00 38 1017.1
20260507151617 56 46 4.0 11.0 0.00 0.00 0.00 38 1017.0
20260507150631 57 35 3.0 11.0 0.00 0.00 0.00 37 1017.0
20260507145643 56 332 3.0 11.0 0.00 0.00 0.00 39 1016.9
20260507143452 56 297 1.0 9.0 0.00 0.00 0.00 43 1016.9
20260507142423 55 219 2.0 8.0 0.00 0.00 0.00 43 1017.0
20260507141424 55 270 1.0 8.0 0.00 0.00 0.00 43 1016.9
20260507135337 54 293 1.0 4.0 0.00 0.00 0.00 46 1016.9
20260507132111 56 255 0.0 0.0 0.00 0.00 0.00 57 1016.8
20260507131122 54 255 0.0 0.0 0.00 0.00 0.00 59 1016.9
20260507125055 52 276 0.0 0.0 0.00 0.00 0.00 63 1016.9
20260507124110 50 304 0.0 0.0 0.00 0.00 0.00 69 1016.8
20260507123134 49 304 0.0 0.0 0.00 0.00 0.00 68 1016.8
20260507122153 49 304 0.0 0.0 0.00 0.00 0.00 67 1016.7
20260507121129 47 304 0.0 0.0 0.00 0.00 0.00 74 1016.7
20260507120119 46 304 0.0 0.0 0.00 0.00 0.00 75 1016.6
20260507113930 43 304 0.0 0.0 0.00 0.00 0.00 81 1016.5
20260507112925 42 304 0.0 0.0 0.00 0.00 0.00 82 1016.5
20260507111934 41 304 0.0 0.0 0.00 0.00 0.00 85 1016.4
20260507105738 39 304 0.0 0.0 0.00 0.00 0.00 87 1016.2
20260507103629 39 304 0.0 0.0 0.00 0.00 0.00 89 1016.3
20260507102633 39 304 0.0 0.0 0.00 0.00 0.00 88 1016.2
20260507101646 40 283 0.0 0.0 0.00 0.00 0.00 88 1016.2
20260507095531 40 283 0.0 0.0 0.00 0.00 0.00 86 1015.9
20260507094544 41 283 0.0 0.0 0.00 0.00 0.00 85 1016.0
20260507093607 41 283 0.0 0.0 0.00 0.00 0.00 83 1016.0
20260507092613 41 283 0.0 0.0 0.00 0.00 0.00 82 1016.0
20260507091614 41 283 0.0 0.0 0.00 0.00 0.00 83 1016.0
20260507090555 41 283 0.0 0.0 0.00 0.00 0.00 85 1016.2
20260507085535 42 283 0.0 0.0 0.00 0.00 0.00 84 1016.2
20260507084526 42 283 0.0 0.0 0.00 0.00 0.00 83 1016.2
20260507083510 42 283 0.0 2.0 0.00 0.00 0.00 82 1016.1
20260507082508 42 308 0.0 1.0 0.00 0.00 0.00 81 1016.1
20260507081434 43 285 0.0 0.0 0.00 0.00 0.00 81 1016.0
20260507080426 43 321 0.0 1.0 0.00 0.00 0.00 80 1015.9
20260507073203 44 272 0.0 0.0 0.00 0.00 0.00 78 1015.7
20260507072224 44 267 1.0 6.0 0.00 0.00 0.00 78 1015.7
20260507071232 44 316 1.0 6.0 0.00 0.00 0.00 80 1015.7
20260507070235 43 278 0.0 3.0 0.00 0.00 0.00 87 1015.7
20260507065252 42 275 0.0 1.0 0.00 0.00 0.00 91 1015.8
20260507064230 42 300 0.0 0.0 0.00 0.00 0.00 91 1015.9
20260507063243 42 300 0.0 0.0 0.00 0.00 0.00 91 1015.9
20260507061133 43 300 0.0 0.0 0.00 0.00 0.00 89 1015.9
20260507060136 43 300 0.0 0.0 0.00 0.00 0.00 89 1015.9
20260507055132 43 300 0.0 0.0 0.00 0.00 0.00 88 1016.0
20260507054123 43 300 0.0 0.0 0.00 0.00 0.00 88 1015.9
20260507053049 44 300 0.0 0.0 0.00 0.00 0.00 88 1015.9
20260507050901 44 300 0.0 0.0 0.00 0.00 0.00 86 1015.8
20260507045926 45 300 0.0 0.0 0.00 0.00 0.00 85 1015.7
20260507044915 45 300 0.0 0.0 0.00 0.00 0.00 86 1015.7
20260507043936 45 300 0.0 0.0 0.00 0.00 0.00 85 1015.8
20260507041834 45 300 0.0 0.0 0.00 0.00 0.00 84 1015.8
20260507040823 46 300 0.0 0.0 0.00 0.00 0.00 84 1015.8
20260507034717 46 300 0.0 0.0 0.00 0.00 0.00 83 1015.7
20260507033706 46 300 0.0 0.0 0.00 0.00 0.00 84 1015.7
20260507032653 47 300 0.0 0.0 0.00 0.00 0.00 85 1015.7
20260507030459 47 300 0.0 0.0 0.00 0.00 0.00 82 1015.7
20260507025443 48 300 0.0 0.0 0.00 0.00 0.00 78 1015.6
20260507024430 49 300 0.0 0.0 0.00 0.00 0.00 76 1015.4
20260507023420 49 300 0.0 0.0 0.00 0.00 0.00 75 1015.4
20260507022438 49 300 0.0 0.0 0.00 0.00 0.00 74 1015.4
20260507020323 51 300 0.0 0.0 0.00 0.00 0.00 69 1015.4
20260507015253 51 300 0.0 0.0 0.00 0.00 0.00 70 1015.2
20260507014245 52 300 0.0 0.0 0.00 0.00 0.00 68 1015.1
20260507013223 53 300 0.0 0.0 0.00 0.00 0.00 65 1014.9
20260507012200 53 300 0.0 0.0 0.00 0.00 0.00 65 1015.0
20260507011130 54 300 0.0 0.0 0.00 0.00 0.00 58 1014.9
20260507005126 55 317 0.0 0.0 0.00 0.00 0.00 58 1014.7
20260507004105 55 323 0.0 0.0 0.00 0.00 0.00 56 1014.6
20260507000804 58 246 1.0 6.0 0.00 0.00 0.00 51 1014.4
20260506234548 61 287 1.0 6.0 0.00 0.00 0.00 53 1014.1
20260506233544 59 293 1.0 6.0 0.00 0.00 0.00 52 1014.1
20260506231429 60 340 1.0 5.0 0.00 0.00 0.00 52 1014.1
20260506230425 59 311 2.0 6.0 0.00 0.00 0.00 50 1014.1
20260506225426 60 234 1.0 10.0 0.00 0.00 0.00 48 1014.0
20260506224354 60 199 2.0 10.0 0.00 0.00 0.00 47 1014.0
20260506223419 60 30 2.0 7.0 0.00 0.00 0.00 48 1014.2
20260506222410 61 326 1.0 8.0 0.00 0.00 0.00 47 1014.2
20260506221432 61 269 2.0 9.0 0.00 0.00 0.00 45 1014.1
20260506220430 61 301 2.0 9.0 0.00 0.00 0.00 45 1014.2
20260506215422 61 261 2.0 5.0 0.00 0.00 0.00 44 1014.3
20260506214349 61 265 1.0 7.0 0.00 0.00 0.00 43 1014.1
20260506213327 62 341 1.0 8.0 0.00 0.00 0.00 44 1014.2
20260506212341 62 293 2.0 8.0 0.00 0.00 0.00 42 1014.1
20260506211345 64 12 1.0 6.0 0.00 0.00 0.00 38 1014.1
20260506210333 62 274 2.0 6.0 0.00 0.00 0.00 41 1013.9